QZS-2 (MICHIBIKI-2) (42738 NORAD) Tracking and Keplerian Element Data

This shows tracking and keplerian element data for the satellite.

Feedback or suggestion? Click here.




ElementValue
Catalog42738
NameQZS-2 (MICHIBIKI-2)
Epoch Orbit259
Epoch Day30.92697792
Epoch Year2025
RAAN250.4662
Inclination40.2085
Eccentricity0.0750134
Argument of Perigee269.9748
Mean Anonmoly85.5951
Mean Motion1.00271822
Decay Rate-7.8E-07
L11 42738U 17028A 25030.92697792 -.00000078 00000+0 00000+0 0 9997
L22 42738 40.2085 250.4662 0750134 269.9748 85.5951 1.00271822 2597



Live tracking and technical data element details for QZS-2 (MICHIBIKI-2) (NORAD 42738). QZS-2 (MICHIBIKI-2) can be tracked NOW for your location showing map with azimuth and elevation plus other details from your city location.







IsCatalogInMostPopularTable: catalog: 42738, numindb: 875
Update: records affected: 1



GetName: 42738 QZS-2 (MICHIBIKI-2)

Hit Count: updated at: Sat, 06 Dec 2025 11:41:18 GMT